When you browse on this site, cookies collect data to enhance your experience and personalize the content and advertising you see.
Visit our Privacy Policy to learn more. By continuing to use the site, you agree to this use of cookies and data.

Hourly Weather Delyatichi

Today, 14 July, Tuesday

Time Temperature Precipitation Wind Pressure Humidity
00:00 +10°C° 0 mm 2 mps 750 mmHg 94%
01:00 +10°C° 0 mm 2 mps 750 mmHg 95%
02:00 +9°C° 0 mm 2 mps 751 mmHg 97%
03:00 +9°C° 0 mm 2 mps 751 mmHg 97%
04:00 +9°C° 0 mm 2 mps 751 mmHg 97%
05:00 +9°C° 0 mm 2 mps 750 mmHg 97%
06:00 +12°C° 0 mm 2 mps 750 mmHg 92%
07:00 +14°C° 0 mm 2 mps 750 mmHg 86%
08:00 +16°C° 0 mm 2 mps 751 mmHg 81%
09:00 +17°C° 0 mm 3 mps 750 mmHg 76%
10:00 +18°C° 0 mm 3 mps 750 mmHg 70%
11:00 +19°C° 0 mm 3 mps 750 mmHg 65%
12:00 +19°C° 0.2 mm 3 mps 750 mmHg 65%
13:00 +20°C° 0.2 mm 3 mps 750 mmHg 65%
14:00 +20°C° 0 mm 3 mps 749 mmHg 68%
15:00 +19°C° 0.2 mm 3 mps 749 mmHg 70%
16:00 +19°C° 0.2 mm 4 mps 749 mmHg 71%
17:00 +19°C° 0.2 mm 4 mps 748 mmHg 72%
18:00 +18°C° 0.1 mm 3 mps 748 mmHg 77%
19:00 +17°C° 0.1 mm 3 mps 748 mmHg 82%
20:00 +16°C° 0.1 mm 3 mps 748 mmHg 87%
21:00 +14°C° 0 mm 3 mps 748 mmHg 89%
22:00 +13°C° 0 mm 3 mps 748 mmHg 92%
23:00 +13°C° 0 mm 2 mps 748 mmHg 94%

Tomorrow, 15 July, Wednesday

Time Temperature Precipitation Wind Pressure Humidity
00:00 +11°C° 0 mm 3 mps 748 mmHg 95%
01:00 +11°C° 0 mm 3 mps 748 mmHg 95%
02:00 +11°C° 0 mm 3 mps 748 mmHg 96%
03:00 +12°C° 0 mm 2 mps 748 mmHg 96%
04:00 +12°C° 0 mm 2 mps 748 mmHg 96%
05:00 +12°C° 0 mm 2 mps 748 mmHg 97%
06:00 +13°C° 0 mm 2 mps 748 mmHg 92%
07:00 +15°C° 0 mm 2 mps 748 mmHg 87%
08:00 +16°C° 0 mm 3 mps 748 mmHg 82%
09:00 +18°C° 0 mm 3 mps 748 mmHg 75%
10:00 +19°C° 0 mm 3 mps 748 mmHg 68%
11:00 +20°C° 0 mm 3 mps 747 mmHg 61%
12:00 +21°C° 0 mm 3 mps 747 mmHg 60%
13:00 +21°C° 0 mm 3 mps 747 mmHg 58%
14:00 +21°C° 0 mm 3 mps 747 mmHg 56%
15:00 +21°C° 0 mm 3 mps 747 mmHg 58%
16:00 +21°C° 0 mm 3 mps 747 mmHg 59%
17:00 +21°C° 0 mm 2 mps 747 mmHg 60%
18:00 +20°C° 0 mm 2 mps 747 mmHg 65%
19:00 +19°C° 0 mm 1 mps 747 mmHg 70%
20:00 +16°C° 0 mm 1 mps 747 mmHg 75%
21:00 +15°C° 0 mm 1 mps 747 mmHg 77%
22:00 +13°C° 0 mm 0 mps 747 mmHg 79%
23:00 +12°C° 0 mm 0 mps 747 mmHg 81%

Day after tomorrow, 16 July, Thursday

Time Temperature Precipitation Wind Pressure Humidity
00:00 +12°C° 0 mm 0 mps 747 mmHg 82%
01:00 +11°C° 0 mm 0 mps 747 mmHg 83%
02:00 +11°C° 0 mm 0 mps 747 mmHg 84%
03:00 +11°C° 0 mm 0 mps 747 mmHg 84%
04:00 +11°C° 0 mm 0 mps 747 mmHg 85%
05:00 +11°C° 0 mm 0 mps 747 mmHg 85%
06:00 +13°C° 0 mm 0 mps 747 mmHg 80%
07:00 +15°C° 0 mm 0 mps 747 mmHg 74%
08:00 +18°C° 0 mm 0 mps 747 mmHg 69%
09:00 +19°C° 0 mm 0 mps 747 mmHg 65%
10:00 +21°C° 0 mm 0 mps 747 mmHg 61%
11:00 +24°C° 0 mm 1 mps 747 mmHg 56%
12:00 +24°C° 0.1 mm 1 mps 746 mmHg 56%
13:00 +25°C° 0.1 mm 1 mps 746 mmHg 56%
14:00 +25°C° 0.1 mm 1 mps 746 mmHg 56%
15:00 +25°C° 0.5 mm 1 mps 746 mmHg 58%
16:00 +24°C° 0.5 mm 1 mps 746 mmHg 61%
17:00 +24°C° 0.5 mm 2 mps 746 mmHg 64%
18:00 +23°C° 0.2 mm 2 mps 746 mmHg 70%
19:00 +21°C° 0.2 mm 1 mps 746 mmHg 75%
20:00 +20°C° 0.2 mm 1 mps 746 mmHg 81%
21:00 +18°C° 0 mm 2 mps 746 mmHg 83%
22:00 +17°C° 0 mm 2 mps 746 mmHg 84%
23:00 +16°C° 0 mm 2 mps 746 mmHg 86%

17 July, Friday

Time Temperature Precipitation Wind Pressure Humidity
00:00 +15°C° 0 mm 2 mps 746 mmHg 86%
01:00 +15°C° 0 mm 2 mps 746 mmHg 87%
02:00 +14°C° 0 mm 2 mps 746 mmHg 87%
03:00 +14°C° 0.1 mm 2 mps 746 mmHg 88%
04:00 +14°C° 0.1 mm 1 mps 746 mmHg 89%
05:00 +14°C° 0.1 mm 1 mps 746 mmHg 90%
06:00 +15°C° 0.1 mm 1 mps 746 mmHg 87%
07:00 +18°C° 0.1 mm 1 mps 747 mmHg 83%
08:00 +19°C° 0.1 mm 1 mps 747 mmHg 80%
09:00 +20°C° 0.1 mm 1 mps 747 mmHg 78%
10:00 +21°C° 0.1 mm 1 mps 747 mmHg 75%
11:00 +23°C° 0.1 mm 2 mps 747 mmHg 73%
12:00 +23°C° 0.9 mm 2 mps 747 mmHg 75%
13:00 +23°C° 0.9 mm 1 mps 747 mmHg 77%
14:00 +23°C° 0.9 mm 1 mps 747 mmHg 79%
15:00 +23°C° 1.3 mm 2 mps 747 mmHg 80%
16:00 +23°C° 1.3 mm 2 mps 747 mmHg 82%
17:00 +21°C° 1.3 mm 2 mps 747 mmHg 84%
18:00 +20°C° 0.6 mm 2 mps 747 mmHg 86%
19:00 +19°C° 0.6 mm 2 mps 747 mmHg 88%
20:00 +18°C° 0.6 mm 2 mps 747 mmHg 90%
21:00 +18°C° 0.3 mm 2 mps 747 mmHg 91%
22:00 +17°C° 0.3 mm 2 mps 747 mmHg 92%
23:00 +17°C° 0.3 mm 2 mps 748 mmHg 92%

18 July, Saturday

Time Temperature Precipitation Wind Pressure Humidity
00:00 +17°C° 0.1 mm 2 mps 748 mmHg 93%
01:00 +16°C° 0.1 mm 2 mps 748 mmHg 94%
02:00 +16°C° 0.1 mm 2 mps 748 mmHg 95%
03:00 +16°C° 0.4 mm 2 mps 748 mmHg 96%
04:00 +16°C° 0.4 mm 2 mps 748 mmHg 97%
05:00 +15°C° 0.4 mm 2 mps 748 mmHg 97%
06:00 +16°C° 0.1 mm 2 mps 748 mmHg 96%
07:00 +17°C° 0.1 mm 2 mps 748 mmHg 94%
08:00 +18°C° 0.1 mm 2 mps 748 mmHg 92%
09:00 +20°C° 0 mm 2 mps 749 mmHg 86%
10:00 +21°C° 0 mm 2 mps 749 mmHg 80%
11:00 +23°C° 0 mm 1 mps 749 mmHg 73%
12:00 +23°C° 0.1 mm 1 mps 749 mmHg 72%
13:00 +23°C° 0.1 mm 1 mps 749 mmHg 72%
14:00 +24°C° 0.1 mm 1 mps 748 mmHg 71%
15:00 +24°C° 0.8 mm 1 mps 748 mmHg 72%
16:00 +24°C° 0.8 mm 1 mps 748 mmHg 74%
17:00 +24°C° 0.8 mm 1 mps 748 mmHg 75%
18:00 +23°C° 0.8 mm 1 mps 748 mmHg 80%
19:00 +21°C° 0.8 mm 1 mps 748 mmHg 85%
20:00 +19°C° 0.8 mm 2 mps 748 mmHg 90%
21:00 +19°C° 0.3 mm 2 mps 748 mmHg 92%
22:00 +18°C° 0.3 mm 2 mps 748 mmHg 94%
23:00 +18°C° 0.3 mm 2 mps 748 mmHg 96%

19 July, Sunday

Time Temperature Precipitation Wind Pressure Humidity
00:00 +18°C° 0.6 mm 2 mps 748 mmHg 96%
01:00 +18°C° 0.6 mm 2 mps 748 mmHg 97%
02:00 +17°C° 0.6 mm 2 mps 748 mmHg 97%
03:00 +17°C° 0.2 mm 2 mps 748 mmHg 97%
04:00 +17°C° 0.2 mm 2 mps 748 mmHg 97%
05:00 +17°C° 0.2 mm 3 mps 748 mmHg 97%
06:00 +17°C° 0 mm 3 mps 748 mmHg 96%
07:00 +18°C° 0 mm 3 mps 748 mmHg 94%
08:00 +18°C° 0 mm 3 mps 748 mmHg 93%
09:00 +19°C° 0.3 mm 3 mps 748 mmHg 91%
10:00 +20°C° 0.3 mm 3 mps 748 mmHg 89%
11:00 +20°C° 0.3 mm 3 mps 748 mmHg 87%
12:00 +21°C° 0.6 mm 3 mps 748 mmHg 83%
13:00 +22°C° 0.6 mm 3 mps 748 mmHg 80%
14:00 +24°C° 0.6 mm 3 mps 747 mmHg 76%
15:00 +24°C° 0.6 mm 3 mps 747 mmHg 78%
16:00 +22°C° 0.6 mm 3 mps 747 mmHg 79%
17:00 +22°C° 0.6 mm 3 mps 747 mmHg 80%
18:00 +21°C° 0.4 mm 2 mps 747 mmHg 85%
19:00 +20°C° 0.4 mm 2 mps 747 mmHg 89%
20:00 +19°C° 0.4 mm 2 mps 746 mmHg 93%
21:00 +18°C° 0.1 mm 2 mps 746 mmHg 94%
22:00 +18°C° 0.1 mm 2 mps 746 mmHg 95%
23:00 +18°C° 0.1 mm 1 mps 746 mmHg 96%
Show more